Location: Coopersdale
(40.3556°N, 78.9372°W)
Time: 00:12:44
(UTC+00:00)

Transit 4A - Pass Details

Date: 30 January 2021
Orbit: 867 x 978 km, 66.8° (Epoch: 07 March)

Event Time Altitude Azimuth Distance (km) Brightness Sun altitude
Rises 21:56:34 0° 188° (S) 3,652 11.6 5.3°
Reaches altitude 10° 21:59:13 10° 182° (S) 2,714 10.8 4.8°
Maximum altitude 22:05:13 45° 111° (ESE) 1,304 8.5 3.8°
Drops below altitude 10° 22:11:14 10° 41° (NE) 2,721 9.8 2.8°
Sets 22:13:53 0° 36° (NE) 3,662 10.5 2.3°
